Kezdőlap
METAR-TAF:

METAR-TAF

Repülőterek :

Vinton Veterans Memorial Airpark

Vinton, Iowa, Amerikai Egyesült Államok

földrajzi szélesség: 42-13-07N, földrajzi hosszúság: 092-01-33W, magasság: 258 m

Jelenlegi meteorológiai megfigyelések

A jelentés 16 perccel ezelõtt készült, 17:55 UTC
Kelet-északkeleti szél 3 kt
Hőmérséklet 33°C
Páratartalom 30%
Légköri nyomás 1010 hPa
Látótávolság: 2.8 km
Száraz légköri homály

METAR: KVTI 181755Z AUTO 06003KT 1 3/4SM HZ VV007 33/13 A2983 RMK AO2 VIS 1/2V5 T03280126 10328 20245

Idő: 13:11 (18:11 UTC)


TAF: hiányzik

Meteorológiai megfigyelések és előrejelzések több, mint 4000 repülőtéren (METAR és TAF jelentéseket).

A térképen piros és sárga pontok jelzik az elérhető meteorológiai állomásokat.

Mozgassa az egeret a pont fölött, hogy megjelenjen az állomás neve.

Azután kattintson az időjárási megfigyelések és előrejelzések megtekintéséhez.

A térkép megváltoztatása: kattintson a fekete keresztel jelölt zöld gombra ráközelítéshez, a vonallal jelölt zöld gombra távolításhoz, vagy a zöld nyilakra a szomszédos térképek eléréséhez.


METAR-TAF: